Weather in Tan Tan

Morocco     28°26′19″N   11°06′08″W
temp.,
°C
wind,
m/s
gust,
m/s
humid.,
%
clouds,
%
prec.,
mm/h
press.,
hPa
HPBL,
m
6 may, thu
thu600:00+18nnw8128175 0.1 1016825
03:00+17n8118392 0.1 1014794
06:00+18n71078100 0.1 1014822
09:00+19n8979100 0.1 1016869
12:00+21n886644 0.1 1016853
15:00+22n876222 0.0 1015821
18:00+20n887371 0.0 1015739
21:00+19n687928 0.0 1017652
7 may, fri
fri700:00+17n589234 0.0 1017384
03:00+17nne468999 0.0 1016401
06:00+18n457992 0.0 1016574
09:00+20n33706 0.0 1017531
12:00+24nw53530 0.0 1016618
15:00+24nw64530 0.0 1015557
18:00+21nnw67735 0.0 1014528
21:00+19n458322 0.0 1016396
8 may, sat
sat800:00+18n458950 0.0 1015361
03:00+17n459153 0.0 1014338
06:00+17n349070 0.0 1015303
09:00+20n447110 0.0 1015588
12:00+23nnw76572 0.0 1015790
15:00+23nnw77550 0.0 1014755
18:00+20nnw78680 0.0 1015715
21:00+18n678127 0.0 1016618
9 may, sun
sun900:00+17n578713 0.0 1016502
03:00+16n59854 0.0 1015375
06:00+16n59841 0.1 1015231
09:00+19n78600 0.0 1016800
12:00+22nnw89450 0.0 1016925
15:00+22nnw910475 0.0 1014928
18:00+20nnw911630 0.0 1015775
21:00+18n7128443 0.0 1016743
10 may, mon
mon1000:00+18nnw6109146 0.1 1016655
03:00+17n6109087 0.1 1015479
06:00+16n59909 0.1 1016269
09:00+20n8106345 0.0 1017918
12:00+22n1011520 0.0 10181122
15:00+22n1011530 0.0 10171038
18:00+19n1011640 0.0 1017897
21:00+17n811762 0.0 1019874